Flag for Canada Weather past 2 weeks in Churchill, Manitoba, Canada

Now
-18 °F

Snow flurries. Partly sunny.


Feels Like: -41 °F
Forecast: N/A
Wind: 13 mph from Northwest

Location: Churchill

Current Time: Jan 28, 2015 at 4:45:35 PM

Latest Report: Jan 28, 2015 at 4:00 PM


Visibility: 15 mi

Pressure: 30.33 "Hg

Humidity: 62%

Dew point: -27 °F

Location of ChurchillLocation

Historic Weather in Churchill — Graph

°F

Churchill temperature yesterday

Maximum temperature yesterday: 14 °F (at 4:00 AM)
Minimum temperature yesterday: -13 °F (at 11:00 PM)
Average temperature yesterday: 0 °F

Past Weeks' High & Low Weather Summary

 TemperatureHumidityPressure
High14 °F (Jan 27, 4:00 AM)92% (Jan 22, 9:00 AM)30.33 "Hg (Jan 22, 9:00 AM)
Low-31 °F (Jan 16, 9:00 AM)62% (Jan 28, 10:00 AM)29.38 "Hg (Jan 22, 2:00 PM)
Average-13 °F77%29.96 "Hg
* Reported Jan 13 4:00 PM — Jan 28 4:00 PM, Churchill, Weather by CustomWeather, © 2014

Note: Actual official high and low records may vary slightly from our data, if they occured in-between our weather recording intervals... More about our weather records

Advertising

Churchill weather history for previous 24 hours

 ConditionsComfort  
Time TempWeatherWind HumidityBarometerVisibility
4:00 PM
Jan 28
-18 °FSnow flurries. Partly sunny.13 mph62%30.33 "Hg15 mi
3:00 PM-18 °FPartly sunny.13 mph69%30.32 "Hg15 mi
2:00 PM-17 °FSnow flurries. Partly sunny.14 mph76%30.31 "Hg15 mi
1:00 PM-18 °FSnow flurries. Partly sunny.13 mph69%30.30 "Hg15 mi
12:00 PM-17 °FSnow flurries. Partly sunny.17 mph76%30.30 "Hg15 mi
11:00 AM-20 °FSnow flurries. Scattered clouds.14 mph68%30.30 "Hg15 mi
10:00 AM-20 °FSnow flurries. Scattered clouds.16 mph62%30.30 "Hg5 mi
9:52 AM-22 °FSnow flurries. Low level haze.16 mph68%30.30 "Hg3 mi
9:00 AM-20 °FSnow flurries. Scattered clouds.14 mph68%30.30 "Hg2 mi
8:00 AM-20 °FSnow flurries. Passing clouds.16 mph68%30.29 "Hg1 mi
7:00 AM-17 °FSnow flurries. Passing clouds.22 mph69%30.27 "Hg2 mi
6:00 AM-18 °FSnow flurries. Clear.22 mph75%30.26 "Hg5 mi
5:00 AM-17 °FSnow flurries. Clear.20 mph69%30.24 "Hg5 mi
4:00 AM-17 °FSnow flurries. Low level haze.21 mph76%30.21 "Hg5 mi
3:00 AM-17 °FSnow flurries. Clear.23 mph76%30.19 "Hg5 mi
2:00 AM-15 °FSnow flurries. Clear.24 mph69%30.17 "Hg5 mi
1:00 AM-15 °FSnow flurries. Clear.26 mph76%30.15 "Hg4 mi
12:00 AM-13 °FSnow flurries. Clear.26 mph76%30.14 "Hg5 mi
11:00 PM
Jan 27
-13 °FSnow flurries. Clear.28 mph76%30.12 "Hg4 mi
10:00 PM-11 °FSnow flurries. Clear.26 mph70%30.10 "Hg4 mi
9:00 PM-11 °FSnow flurries. Low level haze.25 mph76%30.08 "Hg3 mi
8:00 PM-11 °FSnow flurries. Low level haze.28 mph76%30.06 "Hg3 mi
7:00 PM-9 °FSnow flurries. Low level haze.26 mph77%30.05 "Hg15 mi
6:00 PM-9 °FLow level haze.22 mph77%30.03 "Hg15 mi
5:00 PM-8 °FLow level haze.28 mph70%30.00 "Hg15 mi
4:00 PM-8 °FLow level haze.26 mph77%29.98 "Hg12 mi
Weather by CustomWeather, © 2014

See weather overviewHow to use our weather pages